{"data":{"norad_id":53569,"epoch":"2026-09-20T23:31:28.164576Z","epoch_age_seconds":36718,"freshness":"FRESH","line1":"1 53569U 22101AU  26263.98018709  .00000407  00000+0  23185-4 0  9998","line2":"2 53569  53.1574 241.5959 0001299  82.1885 277.9265 15.34387376226817","mean_motion":15.34387376,"eccentricity":0.0001299,"inclination_deg":53.1574,"raan_deg":241.5959,"arg_perigee_deg":82.1885,"mean_anomaly_deg":277.9265,"bstar":2.3185e-5,"rev_number":22681,"period_min":93.848530203236,"perigee_km":461.8521316315,"apogee_km":463.62939167398,"semimajor_km":6840.8777616527,"source":"CELESTRAK","updated_at":"2026-09-21T09:00:32.930639Z"}}